EW1917 Sofignano Vaiano (PO) IT current weather conditions

sailwx.info

Wind from 066 at 0 knots gusting 11

Air temperature 20.6° C
Dewpoint 12.5° C

Last reported at 2020-Aug-05 23:58 UTC.
Time now 2020-Aug-06 00:44 UTC

Location: N 43°58' E 011°09'.
View on Google Maps.

See reports from other nearby stations

  
Tides and Currents Weather Stations Pressure Air Temp Water Temp Dewpoint Dewpoint Depression Visibility Wind Speed Wind Dir Waves Ship Positions
date/time (UTC)wind fromknots sea level pressurealtimeterstation pressurevisibilityair tempwater tempwave heightnotes
2020-Aug-05 23:58 066 0 gusting 11 20.6
2020-Aug-05 23:53 055 2 gusting 9 20.6
2020-Aug-05 23:47 003 5 gusting 11 20.6
2020-Aug-05 23:38 025 20.0
2020-Aug-05 23:33 038 20.0
2020-Aug-05 23:23 045 20.0
2020-Aug-05 23:17 075 0 gusting 2 20.0
2020-Aug-05 23:13 062 20.0
2020-Aug-05 23:07 072 20.0
2020-Aug-05 23:03 072 1 gusting 5 20.0
2020-Aug-05 22:57 085 20.0
2020-Aug-05 22:53 095 2 gusting 6 20.0
2020-Aug-05 22:47 049 5 gusting 6 20.0
2020-Aug-05 22:37 065 0 gusting 6 20.0
2020-Aug-05 22:32 079 2 gusting 6 20.0
2020-Aug-05 22:18 082 2 gusting 6 20.0
2020-Aug-05 22:12 092 3 gusting 6 20.0
2020-Aug-05 22:07 096 20.0
2020-Aug-05 22:03 066 20.0
2020-Aug-05 21:57 078 2 gusting 6 20.0
2020-Aug-05 21:53 109 5 gusting 6 20.0
2020-Aug-05 21:48 082 1 gusting 4 20.0
2020-Aug-05 21:32 068 20.0
2020-Aug-05 21:23 058 1 gusting 5 20.0
2020-Aug-05 21:17 052 20.0
2020-Aug-05 21:12 083 5 gusting 6 20.0
2020-Aug-05 20:58 054 19.4
2020-Aug-05 20:53 041 19.4
2020-Aug-05 20:43 052 0 gusting 3 20.0
2020-Aug-05 20:28 035 20.0
2020-Aug-05 20:23 059 4 gusting 5 20.0
2020-Aug-05 20:18 049 20.0
2020-Aug-05 20:08 042 0 gusting 3 20.0
2020-Aug-05 20:03 20.6
2020-Aug-05 19:58 079 1 gusting 11 20.6
2020-Aug-05 19:53 104 1 gusting 8 20.6
2020-Aug-05 19:48 030 20.6
2020-Aug-05 19:43 044 0 gusting 2 20.6
2020-Aug-05 19:37 357 2 gusting 10 20.6
2020-Aug-05 19:32 20.6
2020-Aug-05 19:27 20.6
2020-Aug-05 19:23 020 1 gusting 11 20.6
2020-Aug-05 19:18 040 5 gusting 9 20.6
2020-Aug-05 19:07 013 0 gusting 8 20.6
2020-Aug-05 18:57 017 2 gusting 9 21.1
2020-Aug-05 18:47 014 3 gusting 7 21.1
2020-Aug-05 18:42 032 1 gusting 10 21.1
2020-Aug-05 18:37 011 6 gusting 9 21.1
2020-Aug-05 18:27 083 0 gusting 2 21.7
2020-Aug-05 18:17 045 21.7
2020-Aug-05 18:12 042 0 gusting 6 21.7
2020-Aug-05 18:07 004 2 gusting 5 22.2
2020-Aug-05 17:48 048 4 gusting 8 22.2
2020-Aug-05 17:37 024 1 gusting 12 22.2
2020-Aug-05 17:27 22.2
2020-Aug-05 17:22 22.2
2020-Aug-05 17:17 349 22.2
2020-Aug-05 17:12 352 6 gusting 6 22.8
2020-Aug-05 17:07 023 6 gusting 10 22.8
2020-Aug-05 16:58 22.8
2020-Aug-05 16:53 013 6 gusting 14 22.8
2020-Aug-05 16:48 007 5 gusting 13 23.3
2020-Aug-05 16:43 343 8 gusting 10 23.3
2020-Aug-05 16:38 068 4 gusting 13 23.3
2020-Aug-05 16:22 069 5 gusting 16 23.9
2020-Aug-05 16:07 013 2 gusting 13 23.9
2020-Aug-05 16:02 030 13 gusting 12 23.9
2020-Aug-05 15:57 062 5 gusting 17 23.9
2020-Aug-05 15:47 078 0 gusting 14 23.9
2020-Aug-05 15:37 047 4 gusting 12 23.9
2020-Aug-05 15:32 020 6 gusting 13 23.9
2020-Aug-05 15:27 020 13 gusting 15 23.9
2020-Aug-05 15:22 034 8 gusting 18 23.3
2020-Aug-05 15:17 008 9 gusting 17 23.3
2020-Aug-05 15:12 056 6 gusting 18 23.3
2020-Aug-05 15:07 078 8 gusting 12 22.8
2020-Aug-05 14:57 018 1 gusting 15 23.3
2020-Aug-05 14:52 038 8 gusting 13 23.3
2020-Aug-05 14:47 23.3
2020-Aug-05 14:32 22.8
2020-Aug-05 14:27 356 7 gusting 11 23.3
2020-Aug-05 14:22 23.9
2020-Aug-05 14:12 350 4 gusting 11 23.9
2020-Aug-05 13:57 034 8 gusting 12 23.9
2020-Aug-05 13:37 106 6 gusting 16 23.9
2020-Aug-05 13:27 340 6 gusting 17 22.8
2020-Aug-05 13:17 336 11 gusting 14 23.3
2020-Aug-05 13:12 016 12 gusting 15 23.9
2020-Aug-05 13:07 356 8 gusting 12 23.9
2020-Aug-05 13:02 359 5 gusting 13 23.9
2020-Aug-05 12:57 356 13 gusting 16 24.4
2020-Aug-05 12:47 24.4
2020-Aug-05 12:42 23.9
2020-Aug-05 12:32 343 12 gusting 17 24.4
2020-Aug-05 12:27 025 15 gusting 12 24.4
2020-Aug-05 12:18 017 16 gusting 19 24.4
2020-Aug-05 12:07 23.9
2020-Aug-05 11:58 23.9
2020-Aug-05 11:53 034 9 gusting 22 23.9
2020-Aug-05 11:47 346 9 gusting 19 23.3
2020-Aug-05 11:37 350 15 gusting 18 23.9
2020-Aug-05 11:32 353 4 gusting 20 23.9
2020-Aug-05 11:27 023 15 gusting 18 23.3
2020-Aug-05 11:22 23.3
2020-Aug-05 11:12 023 13 gusting 17 23.3
2020-Aug-05 11:08 23.3
2020-Aug-05 11:02 23.3
2020-Aug-05 10:43 353 13 gusting 19 23.3
2020-Aug-05 10:38 23.3
2020-Aug-05 10:33 006 14 gusting 11 23.3
2020-Aug-05 10:28 018 4 gusting 10 23.3
2020-Aug-05 10:23 353 3 gusting 17 22.8
2020-Aug-05 10:18 349 8 gusting 15 22.2
2020-Aug-05 10:13 346 10 gusting 18 22.2
2020-Aug-05 10:08 336 6 gusting 14 22.8
2020-Aug-05 10:03 353 10 gusting 15 22.8
2020-Aug-05 09:52 336 14 gusting 13 22.2
2020-Aug-05 09:47 350 3 gusting 12 22.8
2020-Aug-05 09:42 037 6 gusting 16 22.8
2020-Aug-05 09:37 357 8 gusting 10 22.8
2020-Aug-05 09:32 354 3 gusting 17 22.2
2020-Aug-05 09:22 016 6 gusting 20 22.2
2020-Aug-05 09:13 22.2
2020-Aug-05 09:08 004 4 gusting 16 22.2
2020-Aug-05 08:52 023 10 gusting 15 21.7
2020-Aug-05 08:42 21.1
2020-Aug-05 08:37 21.1
2020-Aug-05 08:32 007 5 gusting 12 20.6
2020-Aug-05 08:27 014 11 gusting 15 21.1
2020-Aug-05 08:08 100 1 gusting 11 20.6
2020-Aug-05 08:03 20.6
2020-Aug-05 07:52 357 4 gusting 8 20.6
2020-Aug-05 07:37 359 4 gusting 8 20.0
2020-Aug-05 07:32 003 2 gusting 10 20.0
2020-Aug-05 07:27 023 1 gusting 10 20.0
2020-Aug-05 07:17 051 6 gusting 12 19.4
2020-Aug-05 07:12 076 9 gusting 9 19.4
2020-Aug-05 06:57 024 4 gusting 12 18.9
2020-Aug-05 06:52 041 8 gusting 13 18.9
2020-Aug-05 06:47 024 5 gusting 10 18.9
2020-Aug-05 06:42 048 2 gusting 5 18.9
2020-Aug-05 06:37 035 1 gusting 9 18.9
2020-Aug-05 06:32 082 1 gusting 6 18.9
2020-Aug-05 06:27 065 18.9
2020-Aug-05 06:22 056 18.9
2020-Aug-05 06:12 056 6 gusting 6 18.9
2020-Aug-05 06:07 052 5 gusting 6 18.3
2020-Aug-05 05:52 007 6 gusting 6 18.3
2020-Aug-05 05:47 016 18.3
2020-Aug-05 05:42 016 4 gusting 6 18.3
2020-Aug-05 05:37 037 3 gusting 7 17.8
2020-Aug-05 05:27 037 17.8
2020-Aug-05 05:17 17.8
2020-Aug-05 05:12 17.8
2020-Aug-05 05:02 035 0 gusting 10 17.2
2020-Aug-05 04:52 004 8 gusting 9 17.2
2020-Aug-05 04:42 024 3 gusting 6 17.8
2020-Aug-05 04:22 044 5 gusting 12 18.3
2020-Aug-05 04:02 062 1 gusting 6 17.8
2020-Aug-05 03:57 051 5 gusting 6 17.8
2020-Aug-05 03:47 016 6 gusting 11 17.8
2020-Aug-05 03:42 18.3
2020-Aug-05 03:37 352 4 gusting 11 18.3
2020-Aug-05 03:32 001 6 gusting 13 18.3
2020-Aug-05 03:27 030 6 gusting 12 17.8
2020-Aug-05 03:17 17.8
2020-Aug-05 03:12 17.8
2020-Aug-05 03:07 013 17.8
2020-Aug-05 03:02 037 17.8
2020-Aug-05 02:57 035 0 gusting 3 18.3
2020-Aug-05 02:52 079 18.3
2020-Aug-05 02:47 025 18.3
2020-Aug-05 02:42 047 3 gusting 6 18.3
2020-Aug-05 02:37 18.3
2020-Aug-05 02:32 023 6 gusting 8 18.9
2020-Aug-05 02:27 18.9
2020-Aug-05 02:22 18.3
2020-Aug-05 02:17 034 4 gusting 12 18.3
2020-Aug-05 02:07 100 6 gusting 10 18.3
2020-Aug-05 02:02 106 5 gusting 6 17.8
2020-Aug-05 01:57 056 0 gusting 6 18.3
2020-Aug-05 01:52 089 4 gusting 5 18.3
2020-Aug-05 01:47 058 18.3
2020-Aug-05 01:32 023 5 gusting 6 18.3
2020-Aug-05 01:27 073 1 gusting 6 18.3
2020-Aug-05 01:22 064 4 gusting 6 18.3
2020-Aug-05 01:17 054 18.3
2020-Aug-05 01:12 051 18.3
2020-Aug-05 01:07 030 18.3
2020-Aug-05 00:57 038 18.3
2020-Aug-05 00:53 020 18.3
2020-Aug-05 00:48 024 2 gusting 10 18.3
2020-Aug-05 00:42 024 3 gusting 5 18.3
2020-Aug-05 00:37 024 1 gusting 6 18.3
2020-Aug-05 00:33 016 1 gusting 8 18.9
2020-Aug-05 00:27 020 3 gusting 12 18.9
2020-Aug-05 00:12 038 8 gusting 11 18.9
2020-Aug-05 00:07 027 9 gusting 10 18.9
2020-Aug-05 00:02 052 5 gusting 10 18.9
2020-Aug-04 23:57 023 1 gusting 13 18.9
2020-Aug-04 23:52 020 2 gusting 14 18.9
2020-Aug-04 23:47 083 9 gusting 11 18.9
2020-Aug-04 23:42 041 6 gusting 11 18.9
2020-Aug-04 23:27 19.4
2020-Aug-04 23:18 018 6 gusting 11 19.4
2020-Aug-04 23:12 052 19.4
2020-Aug-04 22:52 037 20.0
2020-Aug-04 22:42 023 11 gusting 12 19.4
2020-Aug-04 22:37 023 4 gusting 10 19.4
2020-Aug-04 22:28 016 1 gusting 8 19.4
2020-Aug-04 22:17 065 2 gusting 6 19.4
2020-Aug-04 22:07 045 2 gusting 9 19.4
2020-Aug-04 21:47 014 2 gusting 6 18.9
2020-Aug-04 21:28 068 4 gusting 5 18.3
2020-Aug-04 21:22 065 18.3
2020-Aug-04 21:02 004 18.9
2020-Aug-04 20:57 030 0 gusting 6 18.9
2020-Aug-04 20:43 045 1 gusting 4 18.9
2020-Aug-04 20:23 044 1 gusting 6 18.3
2020-Aug-04 20:12 048 2 gusting 9 18.3
2020-Aug-04 20:08 027 1 gusting 7 18.3
2020-Aug-04 20:03 052 6 gusting 11 18.3
2020-Aug-04 19:58 024 6 gusting 6 18.3
2020-Aug-04 19:52 18.3
2020-Aug-04 19:47 006 18.3
2020-Aug-04 19:28 045 18.3
2020-Aug-04 19:03 035 1 gusting 5 18.3
2020-Aug-04 18:58 040 2 gusting 6 18.3
2020-Aug-04 18:47 017 18.3
2020-Aug-04 18:42 004 3 gusting 5 18.3
2020-Aug-04 18:37 038 4 gusting 9 18.9
2020-Aug-04 18:23 031 0 gusting 4 18.9
2020-Aug-04 18:18 014 3 gusting 6 18.9
2020-Aug-04 18:08 030 5 gusting 6 18.9
2020-Aug-04 18:03 18.9
2020-Aug-04 17:58 031 2 gusting 9 18.9
2020-Aug-04 17:53 18.9
2020-Aug-04 17:48 19.4
2020-Aug-04 17:43 008 9 gusting 11 19.4
2020-Aug-04 17:38 011 4 gusting 9 19.4
2020-Aug-04 17:33 19.4
2020-Aug-04 17:28 20.0
2020-Aug-04 17:23 20.0
2020-Aug-04 17:18 359 8 gusting 12 20.0
2020-Aug-04 17:08 20.0
2020-Aug-04 16:52 344 1 gusting 6 20.0
2020-Aug-04 16:47 20.0
2020-Aug-04 16:42 017 0 gusting 8 20.0
2020-Aug-04 16:38 20.6
2020-Aug-04 16:32 357 5 gusting 6 20.6
2020-Aug-04 16:28 080 0 gusting 6 20.6
2020-Aug-04 16:13 003 8 gusting 15 21.1
2020-Aug-04 16:08 004 8 gusting 15 21.7
2020-Aug-04 15:52 350 9 gusting 16 22.2
2020-Aug-04 15:32 23.9
2020-Aug-04 15:23 007 5 gusting 13 23.9
2020-Aug-04 15:12 353 9 gusting 11 23.9
2020-Aug-04 15:07 353 9 gusting 12 23.9
2020-Aug-04 14:48 22.8
2020-Aug-04 14:38 001 6 gusting 12 22.8
2020-Aug-04 14:27 349 11 gusting 13 23.3
2020-Aug-04 14:22 356 2 gusting 9 22.8
2020-Aug-04 14:18 22.2
2020-Aug-04 14:13 22.2
2020-Aug-04 14:07 339 6 gusting 12 22.2
2020-Aug-04 14:03 021 4 gusting 12 22.2
2020-Aug-04 13:58 356 4 gusting 9 22.2
2020-Aug-04 13:52 011 1 gusting 11 22.8
2020-Aug-04 13:47 354 9 gusting 9 22.8
2020-Aug-04 13:42 23.3
2020-Aug-04 13:38 008 1 gusting 8 23.9
2020-Aug-04 13:28 035 0 gusting 12 23.9
2020-Aug-04 13:22 23.9
2020-Aug-04 13:12 055 2 gusting 6 22.8
2020-Aug-04 13:07 357 1 gusting 6 22.2
2020-Aug-04 13:02 347 1 gusting 9 22.2
2020-Aug-04 12:53 024 0 gusting 11 21.7
2020-Aug-04 12:47 047 4 gusting 6 21.7
2020-Aug-04 12:42 017 0 gusting 5 21.7
2020-Aug-04 12:37 032 1 gusting 4 21.1
2020-Aug-04 12:32 003 1 gusting 3 21.1
2020-Aug-04 12:22 003 1 gusting 5 21.1
2020-Aug-04 12:13 037 4 gusting 6 20.6
2020-Aug-04 11:58 051 0 gusting 5 19.4
2020-Aug-04 11:47 048 1 gusting 5 19.4
2020-Aug-04 11:42 064 1 gusting 5 18.9
2020-Aug-04 11:17 058 19.4
2020-Aug-04 11:03 003 5 gusting 8 20.6
2020-Aug-04 10:57 058 7 gusting 11 21.1
2020-Aug-04 10:53 353 7 gusting 12 21.1
2020-Aug-04 10:43 357 4 gusting 13 21.7
2020-Aug-04 10:38 21.1
2020-Aug-04 10:33 013 2 gusting 11 21.1
2020-Aug-04 10:28 021 6 gusting 13 21.1
2020-Aug-04 10:23 030 4 gusting 13 20.6
2020-Aug-04 10:12 024 5 gusting 13 20.6
2020-Aug-04 10:07 073 6 gusting 11 20.6
2020-Aug-04 10:02 034 5 gusting 6 20.6
2020-Aug-04 09:53 016 3 gusting 12 20.6
2020-Aug-04 09:48 21.1
2020-Aug-04 09:43 051 6 gusting 13 21.7
2020-Aug-04 09:38 048 6 gusting 12 21.7
2020-Aug-04 09:33 025 6 gusting 12 22.2
2020-Aug-04 09:28 021 5 gusting 12 22.8
2020-Aug-04 09:23 058 1 gusting 9 22.8
2020-Aug-04 09:12 038 5 gusting 10 21.7
2020-Aug-04 09:07 013 5 gusting 9 21.7
2020-Aug-04 08:52 016 7 gusting 10 21.1
2020-Aug-04 08:42 21.1
2020-Aug-04 08:37 075 0 gusting 6 20.6
2020-Aug-04 08:27 20.6
2020-Aug-04 08:22 045 20.6
2020-Aug-04 08:17 013 3 gusting 8 20.6
2020-Aug-04 08:12 357 4 gusting 8 20.6
2020-Aug-04 08:07 20.6
2020-Aug-04 08:02 356 4 gusting 8 20.6
2020-Aug-04 07:53 030 0 gusting 5 20.0
2020-Aug-04 07:48 035 0 gusting 4 20.0
2020-Aug-04 07:42 030 2 gusting 5 20.0
2020-Aug-04 07:38 028 0 gusting 4 20.0
2020-Aug-04 07:27 010 20.0
2020-Aug-04 07:17 008 20.0
2020-Aug-04 07:12 025 5 gusting 11 20.6
2020-Aug-04 07:07 007 1 gusting 9 20.6
2020-Aug-04 07:02 020 20.6
2020-Aug-04 06:53 042 20.0
2020-Aug-04 06:47 030 0 gusting 2 19.4
2020-Aug-04 06:42 034 18.9
2020-Aug-04 06:37 117 18.3
2020-Aug-04 06:33 117 18.3
2020-Aug-04 06:22 117 17.8
2020-Aug-04 06:17 117 17.2
2020-Aug-04 06:12 117 17.2
2020-Aug-04 06:07 065 17.2
2020-Aug-04 06:02 065 17.2
2020-Aug-04 05:57 065 17.8
2020-Aug-04 05:52 065 17.8
2020-Aug-04 05:43 065 17.2
2020-Aug-04 05:27 065 17.2
2020-Aug-04 05:22 065 17.2
2020-Aug-04 05:18 065 17.2
2020-Aug-04 05:13 065 17.2
2020-Aug-04 05:07 065 17.2
2020-Aug-04 05:02 065 17.2
2020-Aug-04 04:57 065 17.2
2020-Aug-04 04:52 065 17.2
2020-Aug-04 04:42 065 17.2
2020-Aug-04 04:32 065 17.2
2020-Aug-04 04:23 065 0 gusting 0 17.2
2020-Aug-04 04:12 064 17.8
2020-Aug-04 04:08 064 17.8
2020-Aug-04 04:03 121 17.8
2020-Aug-04 03:58 123 18.3
2020-Aug-04 03:47 121 18.9
2020-Aug-04 03:33 171 19.4
2020-Aug-04 03:28 171 20.0
2020-Aug-04 03:17 148 20.0
2020-Aug-04 03:07 148 20.0
2020-Aug-04 03:02 148 20.0
2020-Aug-04 02:48 148 20.0
2020-Aug-04 02:42 148 20.0
2020-Aug-04 02:33 148 20.0
2020-Aug-04 02:23 212 20.6
2020-Aug-04 02:17 212 20.6
2020-Aug-04 02:12 212 20.6
2020-Aug-04 02:02 212 20.6
2020-Aug-04 01:48 212 21.1
2020-Aug-04 01:42 212 21.1
2020-Aug-04 01:37 251 21.1
2020-Aug-04 01:33 251 21.1
2020-Aug-04 01:23 250 21.1
2020-Aug-04 00:58 316 21.1
2020-Aug-04 00:53 191 1 gusting 5 21.1
2020-Aug-04 00:43 312 21.1
2020-Aug-04 00:28 261 21.1